CZ-3C DEB, 40174

Orbit data source: Space-Track

CZ-3C DEB, 40174 is space debris in HEO originally from a launch on Sun, 31 Oct 2010 UTC launched from the Xichang Space Center, China (XSC). Debris objects in space refer to the collection of defunct objects orbiting the Earth. Examples of debris include non-operational satellites, rocket bodies, and fragments generated from explosions, collisions, or faulty payload assembly.

Loading next visibility...
Identifier
40174, 2010-057AC
Orbit
HEO
Country
Flag of CNCN / PRC
Related business
Manufacturer
CALT
Mission
Spacecraft
Bus & Motor
Unknown
Mass
Unknown
Launch date (UTC)
2010-10-31 (15 years ago)
Launch vehicle
Unknown
Launch site
Xichang Space Center, China (XSC)
Object type
Payload
Rocket body
Debris
Shape & HBR
Unknown shape, 0.2 m
Radar Cross Section
Medium (>0.1 m² and <1 m²)

Expand to show TLE details & history
Last TLE update: 1 day ago

TLE from 1 day ago
0 CZ-3C DEB
1 40174U 10057AC  26105.33663384 -.00000173  00000-0  30256-3 0  9990
2 40174  20.2754 327.3209 7095955  48.8114  36.5172  2.35046495 99022
Epoch: 2026-04-15T08:04Z
TLE epoch observation values (Epoch: 2026-04-15T08:04:45.163Z)
Latitude
2.28262°
Longitude
176.40493°
Altitude
13,419.874 km
Speed
4.856 km/s
True Right ascension
09h 24m 22s
True Declination
2° 16' 40"
Sunlit
Object was in daylight at epoch
Visualization orbit readout
Latitude
Unknown
Longitude
Unknown
Altitude
Unknown
Speed
Unknown
Apparent Right ascension
Unknown
Apparent Declination
Unknown
Sunlit
N/A
Visualization observer readout
Local Sidereal Time
18:03:08
Azimuth
Unknown
Elevation
Unknown
Doppler factor
Unknown
Orbital elements
Apogee altitude
34,479.333 km
Perigee altitude
562.214 km
Semi-major axis
23,898.911 km
Eccentricity
0.7096
Inclination
20.2754°
RAAN
327.3209°
Arg. of periapsis
48.8114°
True anomaly
124.33965°
Mean anomaly
36.5172°
Eccentric anomaly
75.95936°
Mean motion
0.58746 °/min
Orbital period
612.81 mins
BSTAR
0.00030256
Loading maneuver chart data...
Computing Atmospheric mass density...
Loading historical data...
Loading historical data...
Loading historical data...
Loading historical data...
Loading historical data...
Loading historical data...
Loading historical data...

Documentation

Showing up to 5 results
|